Overview Statistics Trail Chart Weather Telemetry Raw packets
 

This is the latest recevied weather packets stored in our database for station/object WI0K. If no packets are shown the sender has not sent any weather packets the latest 10 day(s).

<< 30 31 32 33 34 35 36 >>
Time Temp. Humidity Pressure Rain* Wind** Luminosity Snow
1788459432 29.44° C 24% 1017.6 hPa 0 mm - 917 W/m² -
1788459131 29.44° C 27% 1017.7 hPa 0 mm - 914 W/m² -
1788458831 29.44° C 23% 1017.7 hPa 0 mm - 910 W/m² -
1788458530 29.44° C 26% 1017.7 hPa 0 mm - 906 W/m² -
1788458229 28.89° C 27% 1017.8 hPa 0 mm - 903 W/m² -
1788457928 28.89° C 25% 1017.9 hPa 0 mm - 895 W/m² -
1788457628 28.89° C 28% 1017.9 hPa 0 mm - 889 W/m² -
1788457327 29.44° C 27% 1017.9 hPa 0 mm - 880 W/m² -
1788457026 29.44° C 29% 1017.9 hPa 0 mm - 871 W/m² -
1788456725 29.44° C 28% 1017.9 hPa 0 mm - 865 W/m² -
1788456425 28.89° C 27% 1017.9 hPa 0 mm - 858 W/m² -
1788456124 28.33° C 29% 1018.1 hPa 0 mm - 852 W/m² -
1788455823 27.78° C 28% 1018.1 hPa 0 mm - 842 W/m² -
1788455522 27.78° C 30% 1018.1 hPa 0 mm - 835 W/m² -
1788455222 27.22° C 33% 1018.1 hPa 0 mm - 825 W/m² -
1788454940 27.22° C 31% 1018.1 hPa 0 mm - 816 W/m² -
1788454620 26.67° C 35% 1018.1 hPa 0 mm - 806 W/m² -
1788454319 26.67° C 35% 1018.1 hPa 0 mm - 796 W/m² -
1788454018 26.67° C 33% 1018.2 hPa 0 mm - 785 W/m² -
1788453717 26.11° C 32% 1018.2 hPa 0 mm - 772 W/m² -
1788453417 26.11° C 34% 1018.2 hPa 0 mm - 759 W/m² -
1788453116 26.11° C 34% 1018.2 hPa 0 mm - 745 W/m² -
1788452815 25.56° C 34% 1018.2 hPa 0 mm - 731 W/m² -
1788452515 25.56° C 34% 1018.2 hPa 0 mm - 720 W/m² -
1788452214 25.56° C 33% 1018.2 hPa 0 mm - 707 W/m² -

* Rain latest hour (hover to see other rain measurements)
** Current wind speed in m/s (hover to see current wind gust speed)